Terminal Aerodrome Forecast
Issued by NWS

Home | Current Version | Previous Version | Text Only | Print | Product List | Glossary Off
Versions: 1 2 3 4 5 6 7 8 9 10 11 12 13

767
FTUS45 KGGW 051720
TAFSDY
TAF
KSDY 051720Z 0518/0618 25010KT P6SM FEW090
     FM061200 24012KT P6SM BKN080 WS020/28040KT
      AMD LTD TO CLD VIS AND WIND=

USA.gov is the U.S. government's official web portal to all federal, state and local government web resources and services.